Wind_Speed
18 21 22 21 23 23 22 20 18 19 21 20 20 18 17 17 17 17 17 16 15 15 15 14 14 14 14 14 14 14 14 13 13 11 11 11 9 9 8 8 8 8 8 8 8 7 7 6 6 7 7 6 5 5 5 5 5 4 3 3 3 4 4 6 8 11 12 12 12 12 11 10 13 13 13 16 17 17 17 16 15 13 11 12 12
21 22 22 21 23 24 22 21 19 19 20 20 20 19 17 17 18 17 17 16 15 15 14 14 14 14 14 14 14 13 13 13 12 12 12 10 9 9 8 8 8 9 9 8 8 8 8 7 8 8 8 7 6 5 6 6 6 5 5 4 5 6 4 6 8 10 12 12 11 11 11 12 14 14 16 18 19 18 18 17 15 13 10 11 12
23 22 21 21 21 23 22 21 20 19 20 19 19 19 17 17 17 17 17 16 15 14 14 14 14 14 14 14 13 12 13 13 12 12 11 10 10 9 9 9 9 9 8 8 8 8 8 7 8 9 9 9 7 6 6 6 7 7 6 6 7 8 7 8 10 11 11 11 11 11 12 13 15 15 18 19 19 20 19 18 16 15 11 10 12
22 22 21 20 20 21 22 22 21 20 20 19 19 18 18 17 16 17 17 16 14 14 13 14 14 14 14 13 12 13 13 13 12 11 10 9 10 9 9 9 9 9 9 9 9 8 7 7 8 9 10 9 8 6 6 6 7 8 7 8 9 9 9 11 12 12 12 12 13 13 13 14 17 17 19 20 20 20 19 18 17 15 11 10 11
21 22 21 19 19 20 20 22 22 21 20 19 18 18 18 17 16 16 16 15 14 14 13 13 14 13 13 12 12 13 12 12 11 11 10 9 9 9 9 9 9 9 9 9 9 9 8 7 7 8 9 9 9 7 7 7 7 9 8 8 11 11 11 12 12 12 13 13 14 14 13 15 18 19 20 21 20 19 18 17 16 14 11 10 11
21 21 20 19 18 19 19 21 22 21 20 19 18 18 17 17 16 16 15 15 14 13 13 13 13 12 12 12 12 12 12 12 11 10 10 8 9 9 8 8 9 9 8 8 8 9 9 8 7 7 9 9 9 8 7 8 8 9 9 8 11 12 11 12 12 12 12 12 13 13 14 15 16 19 20 20 19 17 17 17 15 13 10 10 12
20 20 18 18 18 18 19 21 21 20 19 18 17 17 17 17 16 15 15 14 14 13 12 12 13 12 11 11 12 12 12 12 11 10 9 7 8 9 8 7 8 8 8 7 8 9 9 8 6 7 8 9 9 10 8 8 8 9 9 8 10 13 13 11 11 12 12 11 12 13 14 15 15 18 19 18 17 16 16 15 13 11 10 10 13
20 18 16 18 17 18 19 20 21 20 19 17 16 16 16 16 16 15 15 14 13 13 11 12 12 11 11 12 12 11 12 12 10 9 8 7 7 8 7 7 7 7 7 6 7 7 7 7 7 6 7 8 9 11 9 8 8 9 10 10 11 14 15 13 12 12 13 13 13 13 14 15 15 16 17 17 16 15 14 12 11 10 10 11 13
20 17 16 18 18 18 18 20 20 19 19 17 17 15 15 15 16 15 14 14 13 12 11 12 12 11 11 12 11 11 11 11 10 9 8 7 7 7 6 6 7 6 5 6 6 6 6 6 7 6 6 7 9 10 10 9 9 10 11 11 11 13 15 15 14 12 13 14 13 15 14 15 15 15 16 16 16 15 13 10 10 11 11 13 14
20 17 15 18 18 18 18 20 20 19 19 18 17 16 15 15 16 15 14 14 13 12 11 13 12 11 12 12 11 10 11 10 10 9 7 6 6 6 6 6 6 5 5 5 6 5 5 6 7 7 7 6 8 9 10 10 10 12 12 11 11 12 14 16 16 14 12 13 14 16 15 15 15 15 15 15 15 14 11 10 10 11 12 13 15
18 16 15 18 18 18 19 20 19 19 20 19 18 16 15 16 16 15 14 13 13 12 11 12 11 10 11 11 11 10 10 10 10 9 8 6 6 6 6 5 5 5 4 5 5 6 6 6 8 8 7 5 7 9 10 11 11 13 13 12 12 13 15 16 17 15 12 13 14 16 15 14 14 14 14 14 15 12 10 10 11 12 12 14 15
16 15 15 18 17 18 19 19 20 19 19 19 17 16 15 16 16 15 14 13 12 12 11 11 11 10 10 10 11 10 9 9 10 10 9 8 7 7 7 6 5 5 4 4 5 5 6 6 7 8 7 5 5 8 9 11 13 14 14 13 12 12 14 16 17 16 14 15 15 15 14 13 13 14 13 12 12 11 11 10 11 13 13 14 14
16 15 16 18 18 18 18 19 20 18 18 18 17 16 15 15 14 13 12 12 12 11 11 10 10 10 10 10 10 10 9 9 10 10 11 10 8 8 7 7 6 5 4 4 5 5 5 5 6 6 7 6 4 6 7 10 13 14 16 15 12 11 13 15 17 16 15 17 16 15 14 13 12 11 10 10 10 11 12 11 12 13 13 14 14
15 16 17 17 18 17 17 18 18 18 17 17 17 15 14 14 14 13 11 11 12 11 10 10 10 10 9 9 9 9 9 9 9 10 11 10 9 8 7 7 6 5 3 3 4 5 4 3 4 5 6 6 4 5 7 10 12 13 15 16 13 12 15 15 15 15 16 16 15 15 15 13 10 9 8 8 9 10 11 12 14 14 14 15 14
15 17 18 16 17 17 17 16 17 17 17 16 16 14 13 13 13 13 11 11 11 10 10 9 9 9 9 8 9 7 7 8 9 10 11 11 10 9 9 8 7 4 3 3 3 3 3 3 3 4 5 6 6 5 5 9 12 13 14 15 14 13 15 16 15 15 16 14 14 15 15 12 10 9 7 6 8 10 10 12 15 15 15 16 15
15 17 17 16 17 17 16 15 15 16 16 15 14 13 12 11 12 12 11 11 11 10 9 8 8 8 8 8 7 6 7 8 9 10 10 11 11 10 10 9 8 5 3 3 2 2 2 2 3 3 4 6 7 6 5 7 10 12 12 14 14 13 15 17 16 16 16 14 13 15 15 12 10 9 7 7 9 10 10 12 15 16 16 17 16
14 16 16 15 16 16 16 15 14 14 15 14 14 13 11 11 12 11 11 11 10 10 8 8 7 7 7 7 7 6 6 8 8 10 10 10 10 10 11 10 9 7 4 3 2 1 1 1 3 3 3 4 6 6 6 6 8 10 10 11 13 14 15 17 17 17 16 14 12 13 14 12 10 9 8 8 10 10 11 14 17 17 18 17 16
14 15 16 14 15 15 14 14 13 13 13 13 13 12 12 12 12 12 12 11 11 9 8 7 6 6 6 6 6 6 6 7 7 9 10 9 10 11 12 12 10 7 5 4 4 3 2 1 2 4 4 4 4 6 6 6 6 8 9 10 11 14 17 17 17 18 15 15 13 12 14 13 10 10 9 10 11 12 13 15 17 18 19 17 16
14 14 15 14 13 13 13 12 11 11 11 10 11 11 12 12 12 12 12 11 11 10 8 7 6 5 5 6 6 5 5 5 6 7 8 9 9 10 12 12 11 9 6 5 5 4 2 1 0 3 4 4 5 5 5 6 6 8 9 11 11 14 17 17 16 16 15 15 15 14 14 13 11 10 10 12 13 14 15 16 18 20 18 17 16
14 13 14 14 12 12 13 12 11 10 9 8 9 9 10 12 13 12 12 12 11 10 8 7 5 5 4 5 5 4 3 4 5 6 7 9 9 10 13 13 12 11 9 6 6 5 3 2 1 2 3 4 5 5 6 6 6 7 9 11 13 14 17 17 15 14 15 16 15 15 14 14 13 11 12 13 14 15 15 16 19 20 19 18 18
14 14 13 13 13 12 12 12 11 10 9 8 8 8 8 10 12 12 12 12 11 10 8 6 5 4 4 4 4 3 2 3 5 6 6 8 9 9 12 14 13 12 10 7 6 5 3 2 2 1 2 2 3 5 6 7 6 7 8 11 14 16 17 18 16 14 16 17 16 16 15 15 14 12 12 12 13 15 15 16 18 18 19 19 18
14 14 13 13 13 12 12 12 11 11 10 9 8 7 7 8 10 11 11 12 11 9 7 5 4 3 3 3 3 2 2 2 5 6 6 8 9 9 12 13 12 11 9 6 6 4 3 3 2 1 0 1 2 4 6 7 7 8 9 11 13 16 17 17 17 15 16 17 18 18 17 16 14 13 13 12 13 14 15 16 16 16 16 16 16
14 14 13 14 13 12 12 12 12 11 10 9 7 7 7 8 9 9 9 9 9 8 7 6 5 2 1 2 2 0 2 3 5 6 7 9 9 10 12 14 12 11 9 6 5 4 4 3 2 2 1 2 2 3 5 7 8 8 9 11 14 15 16 17 17 17 16 17 19 19 18 17 14 14 14 13 14 15 15 16 16 16 15 15 14
13 14 14 14 14 13 12 13 13 11 10 9 7 7 7 6 8 9 8 8 7 7 6 6 5 3 1 1 2 1 2 3 6 7 7 9 11 10 12 14 13 12 9 6 6 4 4 3 2 4 3 3 4 4 5 6 8 8 9 12 15 15 16 18 19 18 18 18 19 19 19 17 15 15 16 15 15 16 15 16 16 16 16 15 14
12 13 14 14 14 13 13 13 13 12 11 10 9 7 6 5 6 8 7 6 6 6 6 6 5 4 3 1 1 1 1 4 8 10 8 8 11 12 13 12 11 13 10 6 7 5 4 3 2 6 5 4 5 4 5 6 7 8 9 10 13 14 15 17 18 17 17 18 19 20 19 18 17 17 17 17 17 17 16 15 16 16 16 15 15
12 12 13 14 14 13 13 12 12 14 12 10 10 8 8 5 6 7 6 5 4 4 5 5 5 5 4 3 2 3 5 6 8 12 9 7 10 16 15 12 12 13 10 9 10 7 5 4 4 7 6 5 5 4 5 6 7 7 8 9 12 13 14 15 16 15 17 18 18 18 19 20 19 18 18 19 19 18 17 16 16 16 16 16 15
14 11 11 13 15 14 13 12 12 13 13 11 11 10 9 7 8 7 6 6 5 4 4 4 5 6 5 5 4 4 6 7 8 10 10 9 9 14 15 13 13 13 12 13 10 7 6 5 5 7 6 6 6 5 6 6 6 7 7 9 11 13 14 15 15 16 18 18 17 17 20 20 20 19 18 18 19 19 19 18 17 17 16 16 15
15 12 11 12 14 15 14 11 10 11 13 13 12 11 9 9 10 9 9 10 8 7 8 7 6 7 7 6 6 5 7 8 8 9 10 10 9 9 11 14 15 13 13 11 7 6 7 6 6 6 6 7 7 5 4 4 6 6 6 8 10 12 14 15 15 16 18 17 17 19 21 21 20 19 19 19 20 20 20 19 19 18 17 17 16
14 12 10 11 12 14 14 11 9 10 12 12 12 12 9 9 10 10 10 11 11 8 8 7 6 7 8 9 8 7 8 7 8 9 9 10 8 7 9 13 16 15 14 12 9 8 8 8 8 6 6 7 7 6 3 3 5 6 6 8 10 12 14 15 15 15 17 17 17 19 20 21 21 20 20 21 21 21 21 21 20 20 19 18 17
13 11 11 11 11 13 13 12 10 9 10 10 11 12 10 10 11 11 9 9 9 8 8 7 6 7 9 11 11 9 8 8 9 9 8 10 10 10 10 11 15 17 16 14 11 10 9 11 9 5 6 7 7 6 5 4 5 6 6 9 9 10 13 14 16 17 18 18 18 18 18 20 21 22 22 22 22 23 23 23 23 22 21 20 19
15 11 12 12 11 11 11 12 11 10 11 10 10 11 11 11 10 10 10 9 8 8 10 8 7 8 9 11 11 12 12 10 12 10 7 10 10 11 11 9 13 17 16 14 13 12 11 11 10 7 6 8 8 6 5 5 4 6 7 8 8 9 11 12 14 16 18 18 18 17 18 20 21 22 23 24 24 24 24 25 25 24 23 22 21
17 13 14 15 13 11 11 12 11 11 10 11 11 11 11 11 10 9 9 10 10 12 12 9 8 10 11 11 8 10 14 13 13 12 10 10 10 10 10 9 12 16 18 16 14 14 13 9 9 8 6 8 9 7 6 5 2 4 6 7 8 8 9 10 12 14 16 17 17 16 17 19 21 22 22 24 25 25 26 26 26 26 25 24 23
17 15 15 16 16 14 14 15 13 11 10 12 13 13 13 12 12 11 11 13 14 15 14 12 13 14 14 15 12 12 15 17 16 14 15 14 12 12 12 13 13 14 17 16 14 14 14 10 8 8 8 9 9 7 6 5 3 3 5 6 8 8 7 9 9 11 14 17 17 16 16 17 20 21 22 23 25 26 26 27 26 26 26 25 24
18 17 16 17 17 18 18 18 17 14 14 15 15 15 15 13 13 13 13 14 15 16 15 14 15 16 15 17 18 18 20 22 19 17 17 17 16 14 13 15 15 13 14 17 18 16 15 12 9 8 11 10 10 9 6 5 4 4 5 6 6 6 7 7 8 9 12 15 16 16 15 15 18 20 21 23 24 26 27 27 27 26 26 26 25
17 18 19 19 17 17 18 19 19 18 17 16 16 16 16 15 14 15 15 15 16 17 17 16 16 16 17 18 19 21 22 22 20 19 19 18 19 17 15 17 16 14 14 16 18 17 16 13 11 10 9 9 10 9 5 4 4 3 4 5 4 5 5 6 8 9 10 13 14 13 13 14 16 18 20 22 23 25 27 27 27 27 27 26 26
13 15 18 21 20 17 18 19 19 19 18 17 16 17 16 17 17 17 17 18 19 19 20 20 19 19 20 20 20 21 22 23 22 21 19 19 20 18 17 17 16 16 14 14 16 17 17 15 13 12 9 8 8 6 5 5 4 2 2 3 4 4 4 5 8 8 8 11 11 10 12 14 15 16 17 20 22 24 26 27 28 27 27 27 26
10 11 14 17 17 16 16 17 18 18 18 18 17 17 18 18 20 20 20 21 21 22 22 22 22 22 23 22 21 21 22 23 23 21 18 18 19 18 18 17 17 16 14 14 17 18 17 15 15 13 12 10 7 7 9 6 4 3 2 2 3 3 3 5 7 7 7 9 10 11 12 13 14 14 15 18 20 22 23 26 27 27 28 28 27
7 8 10 12 11 11 11 12 14 14 15 15 15 15 16 16 18 19 20 21 22 22 23 23 23 23 24 24 22 22 22 23 22 20 18 16 16 17 18 18 18 17 15 14 16 17 16 15 13 11 12 10 7 10 11 5 4 4 4 4 3 3 2 3 6 7 7 7 9 10 12 13 14 13 15 17 18 19 21 23 25 26 27 28 28
5 6 7 9 9 9 10 10 10 11 10 11 11 12 12 13 14 15 17 17 18 19 20 21 21 21 22 23 22 22 22 23 21 19 19 18 17 17 17 19 19 18 16 15 15 17 17 15 13 12 13 12 9 11 11 7 6 7 7 6 5 4 3 3 6 7 7 7 7 9 11 12 14 14 15 17 17 18 19 21 23 26 27 28 29
5 5 4 6 6 6 6 7 7 8 9 9 10 10 11 11 12 13 14 15 15 16 17 18 18 18 19 20 21 21 22 23 22 21 21 21 20 18 17 18 19 19 18 18 16 16 17 15 14 13 13 14 12 11 11 9 9 9 9 9 7 6 5 4 6 8 8 8 7 8 10 11 14 14 14 16 17 17 18 19 21 23 25 27 28
4 4 4 4 4 3 3 4 5 6 7 8 9 9 10 10 11 12 12 13 14 15 16 16 17 17 16 17 19 20 21 22 22 22 22 23 23 22 20 18 19 20 20 20 18 18 18 16 15 15 14 14 14 13 12 11 12 12 10 10 9 8 7 6 6 7 9 10 9 8 10 12 14 14 14 17 17 17 18 19 19 20 22 24 26
3 3 4 3 3 3 3 4 5 5 5 6 7 8 8 9 10 11 11 12 14 16 16 16 16 16 16 16 17 19 20 20 20 21 22 23 25 25 22 19 19 21 21 20 20 20 19 17 17 17 15 14 14 14 13 13 14 13 9 9 9 9 10 8 7 7 8 10 10 9 10 12 12 12 14 17 17 17 18 18 18 19 20 21 23
3 2 3 3 3 3 4 4 4 5 5 6 7 7 8 8 9 10 11 13 14 15 16 15 16 16 15 16 16 18 19 19 19 20 21 22 24 24 23 20 19 21 22 22 22 22 20 19 18 18 16 15 14 13 14 15 14 12 9 9 9 8 10 10 9 8 7 9 11 10 10 10 10 11 14 16 16 17 18 18 18 18 19 19 20
3 3 3 2 2 2 3 2 2 3 4 4 5 6 7 8 10 11 12 14 14 14 14 14 14 14 13 14 15 16 17 18 18 19 21 21 21 22 21 21 20 21 24 25 25 25 22 21 20 19 19 18 15 13 14 16 16 14 11 8 8 7 8 9 9 8 8 9 11 11 9 9 9 10 13 14 14 14 16 18 17 18 18 18 19
2 2 1 0 1 0 1 2 2 2 3 4 4 5 6 8 10 10 11 12 12 12 12 11 11 10 11 12 14 14 15 16 17 18 20 21 20 20 19 20 21 23 25 26 27 26 24 22 20 19 19 19 17 14 14 16 17 17 14 10 8 8 8 8 7 8 9 10 11 10 9 9 10 10 11 12 14 14 15 17 17 18 19 18 18
4 3 3 3 2 1 2 4 4 3 4 5 5 7 7 7 9 9 9 10 10 10 10 10 9 9 9 11 13 14 15 15 16 17 19 19 19 19 19 19 20 23 25 26 27 25 24 22 20 19 19 19 17 17 16 15 16 18 18 15 12 10 9 8 8 7 8 10 12 13 11 11 10 10 11 13 15 16 16 17 17 18 19 19 19
6 6 6 5 5 4 2 4 4 4 5 5 6 7 7 8 9 10 9 10 11 10 10 9 8 9 9 11 13 14 14 15 16 16 16 17 17 18 19 18 18 20 23 26 26 24 22 21 21 20 20 18 17 19 19 16 15 17 17 16 14 13 11 10 10 8 8 10 13 14 13 13 12 11 12 13 15 17 16 17 17 17 19 19 19
8 7 6 6 6 5 4 5 5 4 4 5 5 5 6 8 10 10 10 11 11 10 10 9 8 9 10 11 12 13 14 15 16 16 15 16 17 17 18 19 18 19 22 25 25 24 22 21 22 21 20 19 19 20 20 18 17 16 16 15 15 14 14 13 12 9 9 10 12 14 13 14 14 13 13 13 14 16 16 16 17 18 18 18 18
8 8 6 6 5 4 4 5 5 5 5 6 6 6 6 7 7 8 9 10 11 10 11 10 9 9 10 11 12 12 13 14 15 16 15 16 17 18 19 19 19 19 23 25 24 24 23 23 23 21 20 19 19 20 20 20 20 17 16 16 16 15 15 15 14 12 12 12 12 13 13 13 14 14 13 12 13 15 16 16 16 17 18 18 17
8 8 7 7 5 5 4 4 5 5 6 6 6 6 7 7 7 7 7 8 8 9 10 10 9 10 12 14 13 12 12 13 14 15 16 16 16 18 20 21 20 20 23 25 24 23 22 23 23 21 20 19 19 20 20 20 21 20 17 16 16 16 15 15 15 15 15 15 14 13 13 13 14 12 12 12 12 13 14 15 16 17 17 17 17
8 7 7 7 6 6 6 5 5 5 5 6 6 6 7 7 7 7 8 9 8 8 8 8 8 8 10 12 12 12 12 12 14 15 16 16 16 18 20 20 20 22 24 25 24 22 21 21 21 21 21 20 20 21 21 21 21 21 20 18 17 17 17 17 16 15 16 16 15 15 15 14 13 13 13 12 11 12 14 15 16 16 17 17 17
Wind_Direction
147 145 138 138 134 132 130 129 130 127 131 135 134 135 134 130 125 123 123 120 116 113 112 111 109 106 104 99 95 92 89 89 93 92 91 94 96 96 96 94 95 94 92 92 92 91 91 96 97 105 118 129 129 136 151 162 178 177 166 193 155 131 193 201 194 183 177 185 189 188 177 160 145 143 148 153 158 151 147 142 129 126 136 140 134
149 146 140 140 134 131 130 130 131 130 134 141 142 143 140 132 127 127 127 124 120 116 112 110 108 106 103 100 97 93 89 91 95 91 88 93 92 88 90 89 87 88 90 90 90 88 87 90 94 104 116 121 116 119 135 143 151 152 155 174 139 124 170 175 168 169 169 179 182 179 171 153 139 143 148 149 153 151 150 144 138 141 146 143 134
147 147 144 143 137 131 129 131 133 133 136 142 145 145 142 133 130 131 130 127 123 117 113 110 107 104 101 100 98 93 91 94 94 88 88 91 88 85 87 84 80 86 92 92 91 88 87 89 93 104 112 117 113 111 126 133 136 134 138 147 126 121 150 151 147 153 161 169 170 168 164 151 141 147 150 148 151 152 152 146 148 153 151 147 137
147 146 147 146 140 133 130 132 135 137 137 142 145 145 143 135 132 132 133 129 124 119 114 110 107 104 101 101 97 95 95 96 92 85 85 85 85 83 82 81 80 85 92 91 89 91 94 93 90 97 107 112 112 109 118 124 128 127 127 127 115 121 143 140 139 145 151 157 163 165 161 151 144 148 148 146 149 149 150 148 150 152 153 150 142
147 146 148 147 142 136 131 132 135 139 139 142 145 144 142 137 135 133 134 131 127 123 117 112 108 105 102 101 96 96 97 94 90 83 79 77 81 80 79 80 82 86 88 91 93 97 98 95 94 97 104 108 109 107 115 121 125 126 128 124 115 123 138 135 140 144 148 155 161 163 158 148 141 143 142 143 147 146 147 147 145 148 153 149 147
144 146 149 148 144 138 135 134 134 138 140 141 145 145 142 139 138 134 133 130 128 124 119 116 110 107 101 97 95 96 94 90 88 81 78 74 75 76 77 73 75 83 85 92 98 99 97 93 95 99 106 111 111 109 114 117 121 126 129 130 121 125 137 137 143 146 148 157 161 161 155 147 140 137 138 143 146 144 142 142 143 150 152 149 154
140 144 150 150 145 141 138 135 134 138 139 140 144 145 142 141 139 135 132 129 127 125 124 121 114 109 101 97 96 93 88 85 83 78 76 70 67 70 71 67 69 75 80 89 93 94 99 100 99 99 108 114 115 115 116 118 122 125 125 130 128 128 137 140 145 150 149 155 160 157 149 147 142 136 138 143 143 140 138 139 146 153 151 153 159
134 140 150 153 148 144 140 135 135 138 140 140 143 145 143 141 139 135 131 131 130 128 128 122 114 110 103 98 95 87 84 80 76 72 71 68 63 66 63 62 64 65 74 81 85 88 98 107 110 107 107 111 115 119 120 123 127 126 124 127 129 129 135 139 143 150 149 153 156 150 146 146 143 139 139 141 141 140 140 143 147 150 151 156 158
133 137 148 154 148 144 141 137 137 138 139 138 140 143 143 142 139 135 133 133 130 130 129 120 114 110 103 98 96 88 83 76 71 69 67 69 63 62 58 56 59 60 67 72 79 84 92 102 108 110 110 112 115 121 123 126 128 127 124 124 128 130 133 140 144 146 148 154 155 146 145 145 143 141 141 142 141 142 145 147 144 147 153 155 152
134 138 146 149 144 142 143 139 138 139 139 138 139 141 144 143 139 137 137 136 134 133 126 115 111 106 101 98 96 88 82 74 68 69 69 73 65 58 54 51 54 57 62 68 74 78 87 98 107 110 110 117 119 121 126 131 134 131 127 127 131 131 133 145 149 144 147 159 156 148 146 144 143 141 140 143 142 145 149 147 146 147 152 154 151
139 144 142 143 142 141 143 140 139 140 141 141 142 144 148 145 143 143 142 142 139 133 121 113 108 102 101 98 95 90 84 75 69 69 68 64 56 50 47 47 48 50 56 67 73 74 79 97 111 114 114 121 123 123 129 138 142 136 134 133 132 133 133 145 154 146 151 165 157 150 149 145 146 142 139 142 143 149 150 147 149 147 152 154 151
144 150 142 141 141 142 144 142 140 142 143 143 145 148 149 150 150 147 143 143 136 128 121 115 109 104 101 98 95 92 84 76 72 66 60 55 48 44 41 41 40 40 38 60 74 73 73 92 109 115 120 126 125 124 131 143 149 146 144 141 134 138 134 140 154 150 152 160 155 152 151 149 149 143 142 145 145 152 151 152 155 153 155 151 148
143 145 142 143 141 144 147 144 142 143 144 144 145 146 151 156 154 146 144 141 131 128 125 118 112 107 104 100 93 87 82 74 68 60 54 52 49 45 43 38 37 40 23 45 69 73 74 87 103 111 121 127 135 127 125 139 153 154 153 152 144 145 137 140 154 152 151 155 155 155 153 154 153 147 150 152 151 157 157 162 164 159 156 148 148
147 141 142 146 143 143 146 146 143 143 145 145 145 149 156 154 150 151 151 142 135 134 129 122 117 111 110 105 94 85 78 68 60 56 52 49 48 44 39 32 31 40 27 33 59 69 77 82 100 113 124 131 141 140 129 133 150 156 157 158 154 153 146 146 160 159 154 156 160 160 157 160 158 153 156 161 165 168 167 168 168 164 157 151 152
144 140 143 145 143 144 144 145 144 144 147 147 148 154 160 154 152 157 154 146 143 141 135 130 123 120 118 109 99 88 77 66 53 49 47 45 44 39 32 25 20 24 17 15 45 75 90 94 108 122 137 142 144 150 148 140 146 153 159 161 156 159 157 154 163 164 160 163 169 167 166 167 164 164 162 174 183 178 179 175 172 170 160 155 160
140 138 144 144 146 147 144 145 144 145 146 149 151 155 159 160 159 158 155 153 152 147 142 135 129 128 123 114 106 93 76 63 49 43 44 42 40 36 27 18 11 4 350 348 19 78 95 111 122 124 139 150 151 152 160 152 146 151 159 162 157 161 165 163 165 164 165 174 177 172 173 173 172 176 174 184 188 182 185 180 177 173 164 163 168
140 137 143 145 148 147 144 145 145 146 148 152 154 157 162 166 165 160 160 161 159 154 148 143 138 137 129 120 111 95 74 58 45 36 39 40 37 33 18 7 1 350 333 318 307 304 354 65 107 113 124 144 153 154 160 157 148 153 160 163 162 163 166 169 170 168 170 177 181 179 177 177 181 187 184 186 186 185 185 182 181 174 168 171 173
138 136 142 144 147 146 146 146 147 150 152 159 160 165 169 170 170 164 165 167 167 164 156 153 148 146 137 123 110 94 73 51 39 32 33 36 32 26 11 2 356 345 334 314 299 296 316 351 90 114 125 141 151 153 157 157 154 160 165 171 170 166 168 171 172 172 173 175 182 188 183 183 190 193 189 186 186 187 185 183 180 173 172 174 173
139 138 141 143 147 148 149 148 151 153 153 166 170 173 176 176 174 170 171 172 175 174 168 165 158 153 144 128 113 97 78 44 30 27 22 25 23 17 9 3 356 348 336 319 310 304 291 291 193 131 131 145 150 152 157 161 162 164 167 176 179 172 171 172 171 176 180 178 183 191 189 190 196 197 191 185 184 186 185 181 175 173 175 175 174
143 140 142 145 148 152 154 154 156 156 156 170 180 180 182 183 179 178 177 178 183 182 181 175 165 160 151 136 123 111 84 33 16 10 3 12 15 6 6 4 359 351 341 328 320 307 281 274 242 153 142 150 153 159 169 173 171 170 169 174 182 180 177 180 179 184 188 185 187 193 193 195 197 197 192 186 183 184 183 178 174 176 177 178 178
145 145 149 151 152 158 159 159 160 161 164 171 187 189 187 191 187 185 185 186 188 189 191 187 179 169 155 148 137 115 60 13 360 352 349 1 4 356 359 3 0 353 347 338 329 314 291 288 274 188 154 159 155 165 177 184 187 182 176 174 180 184 187 193 194 189 189 189 192 195 196 197 196 195 191 185 181 184 182 177 177 180 180 181 183
148 151 155 157 159 166 162 163 163 166 175 175 188 193 190 200 200 195 194 194 192 193 198 201 205 189 157 156 147 78 11 355 355 344 339 348 347 344 352 357 353 348 345 340 333 315 302 311 285 267 153 194 175 179 183 187 196 190 186 181 181 186 189 199 203 195 190 191 193 195 198 198 196 195 191 185 180 182 180 175 177 181 184 186 186
153 156 160 164 166 169 164 167 168 172 182 174 182 198 193 201 212 209 205 202 197 200 204 214 222 224 190 150 163 339 359 342 336 328 333 336 332 337 344 346 343 336 335 331 325 308 304 319 296 300 314 259 232 218 206 195 198 194 194 191 188 189 185 193 202 200 196 194 194 196 198 198 196 197 193 186 181 180 177 173 174 178 183 188 189
159 161 167 169 169 172 172 175 173 176 184 178 178 197 198 197 218 218 214 210 200 207 215 225 229 239 263 145 192 293 18 331 305 309 324 320 321 335 335 337 343 336 327 314 302 296 304 315 313 311 306 277 262 247 224 207 209 201 195 194 195 195 186 190 196 197 198 195 195 198 199 197 197 199 196 189 183 181 179 175 175 179 183 188 192
162 162 168 170 170 175 180 179 176 178 185 188 177 189 209 194 217 223 217 219 212 220 224 228 237 241 252 253 240 254 279 271 279 291 311 319 316 322 324 327 336 332 323 310 295 289 296 296 318 318 314 299 271 237 214 208 214 202 190 193 194 195 193 196 194 191 195 194 196 200 201 199 199 202 198 193 189 185 182 180 180 183 185 189 193
161 162 168 173 173 174 185 184 181 185 187 192 173 187 222 182 189 220 207 211 226 241 239 236 243 244 238 248 250 224 246 263 276 283 297 327 308 298 307 317 322 323 317 313 302 285 275 270 305 315 312 298 280 240 215 206 210 197 187 194 190 191 195 198 196 197 198 194 196 200 202 201 200 204 202 198 195 193 190 186 186 187 189 191 192
154 164 166 172 175 173 191 194 187 187 187 192 173 182 218 181 175 206 191 191 214 227 230 234 243 254 251 236 228 225 249 262 275 274 276 307 307 285 295 312 311 309 312 315 302 273 257 261 290 305 305 279 265 253 222 203 207 197 190 197 188 187 190 190 197 205 201 193 193 199 202 202 202 203 204 204 201 200 200 197 196 195 197 196 195
152 160 162 170 176 174 189 202 202 195 189 195 183 179 205 191 178 196 197 191 197 208 215 217 226 256 272 259 234 223 239 250 263 264 264 290 305 282 293 309 303 301 311 315 311 280 249 264 289 285 294 271 250 251 222 206 216 200 193 197 188 186 187 188 195 206 203 193 193 200 203 203 203 204 205 208 206 204 206 204 205 204 204 203 201
155 156 163 166 175 177 180 194 206 199 192 195 186 179 196 199 185 195 213 206 198 205 220 220 224 246 259 269 267 245 235 241 261 266 266 280 284 272 288 303 297 295 300 300 315 308 257 268 289 273 287 281 259 250 238 255 235 205 203 200 191 191 191 193 195 203 206 198 197 200 202 204 205 206 207 209 208 208 209 208 209 210 209 206 204
156 158 168 163 171 182 181 187 196 191 189 196 190 181 188 198 193 194 212 224 214 211 219 215 228 239 246 272 284 273 247 238 256 263 273 277 265 268 283 289 284 288 293 291 304 308 274 273 281 277 285 278 270 255 253 274 236 212 212 196 194 197 191 194 196 200 205 201 200 202 205 208 207 209 210 210 211 210 211 211 211 212 212 210 208
159 164 170 165 167 180 188 191 202 199 185 196 202 191 194 198 202 202 202 220 225 226 227 216 222 237 255 280 283 276 268 254 248 240 258 281 268 271 284 280 275 284 291 288 292 299 292 281 272 280 285 264 258 249 257 276 234 212 211 187 185 194 186 189 193 197 205 204 201 201 206 209 209 210 212 212 213 213 213 214 214 214 214 213 212
165 172 173 167 163 177 188 183 207 223 196 196 207 202 204 200 199 209 208 215 218 227 234 221 220 228 240 256 248 254 264 261 254 238 237 263 268 269 272 269 275 284 287 287 290 292 293 287 272 276 277 253 241 238 258 267 230 196 196 178 172 179 181 189 192 192 200 206 204 201 203 207 208 210 213 215 216 217 216 216 217 216 215 216 216
179 179 175 170 169 180 183 175 192 217 200 200 213 209 211 208 203 206 210 220 222 227 233 220 219 225 226 231 226 231 248 256 261 254 241 241 252 263 268 271 270 274 283 289 286 283 285 284 278 261 234 231 235 244 256 230 196 175 178 179 172 170 174 184 190 190 194 201 205 202 200 204 209 211 213 216 217 218 219 218 219 218 217 218 218
196 191 187 185 184 185 188 189 190 197 199 204 215 220 223 227 226 224 224 229 232 236 239 230 225 230 231 233 236 241 249 258 263 263 252 241 244 251 258 263 258 255 269 280 281 282 281 275 280 258 224 227 240 245 243 201 193 187 174 180 174 171 177 179 185 188 192 200 203 204 204 204 208 212 213 215 218 218 219 219 220 220 220 221 221
201 199 196 198 199 195 196 204 204 206 212 215 220 226 232 238 239 240 240 240 242 245 247 245 242 242 244 244 246 251 254 259 264 265 260 250 246 246 246 250 250 249 252 266 274 277 279 278 284 273 240 232 241 242 234 209 213 194 169 172 168 178 185 187 192 185 188 202 205 206 208 207 207 212 215 216 217 218 218 219 220 221 222 223 223
201 199 199 204 209 210 209 215 220 221 225 230 233 235 240 244 247 247 248 248 248 251 253 254 255 256 257 256 255 259 258 259 264 266 264 257 251 249 249 250 250 246 243 256 264 264 271 275 272 273 267 249 243 248 242 232 232 199 178 183 174 186 188 191 199 190 188 201 206 212 213 211 210 212 217 220 220 220 220 219 219 221 223 224 225
196 194 196 203 209 216 219 220 226 231 234 240 244 246 248 250 253 254 253 253 252 253 256 257 260 262 264 264 261 260 260 259 262 265 265 260 256 253 252 253 254 249 239 249 259 260 263 261 258 267 275 262 245 248 245 240 244 228 225 227 198 203 204 196 198 195 197 201 205 214 217 214 215 216 219 221 222 223 223 223 221 221 223 224 226
185 190 191 196 205 216 222 223 225 232 239 244 247 248 253 255 256 257 257 258 258 257 258 258 258 261 265 267 265 263 261 261 261 263 265 264 263 262 257 253 254 253 241 238 248 254 257 258 260 267 269 263 244 245 244 231 238 245 240 238 227 227 226 209 207 202 199 199 201 210 217 216 215 220 223 223 223 225 225 225 225 224 224 225 226
163 180 189 193 203 212 217 220 220 227 238 243 246 248 252 257 259 260 260 260 262 263 263 262 261 262 264 265 265 265 264 264 263 263 266 267 268 269 266 257 252 250 239 231 236 245 253 258 260 262 266 265 248 240 241 221 220 240 243 241 239 233 234 223 220 215 203 197 200 206 214 215 214 218 223 225 225 226 226 224 224 226 226 226 227
147 165 178 187 204 219 224 231 230 231 240 244 247 251 253 257 263 266 267 267 267 269 270 271 269 267 264 261 263 265 265 266 267 265 265 266 268 271 271 263 254 247 240 239 240 243 250 255 257 255 259 266 257 242 242 233 227 240 249 252 250 230 226 229 221 222 215 211 218 219 215 214 213 214 218 224 225 224 226 224 224 226 228 228 228
137 152 166 180 201 221 233 249 250 242 244 248 251 255 255 256 261 265 271 272 271 271 270 270 268 267 265 259 260 263 265 267 269 268 266 267 268 270 272 268 258 248 244 245 243 242 244 247 252 251 251 259 257 247 239 231 233 245 252 252 252 236 229 232 221 221 221 221 228 230 224 218 212 207 210 219 223 223 225 226 226 228 231 231 231
128 133 143 159 187 204 216 234 244 247 248 248 251 256 256 255 256 261 268 268 269 271 268 266 264 263 263 260 257 258 262 266 270 270 269 268 268 268 269 268 260 250 245 244 243 245 245 241 244 247 248 252 253 251 242 233 237 244 249 247 246 243 238 232 223 221 221 221 222 224 224 222 219 212 209 213 215 219 224 228 230 230 233 234 233
107 103 108 122 162 186 200 219 235 242 246 250 256 263 265 264 265 269 271 269 270 271 271 269 266 264 262 262 260 258 259 261 264 267 266 265 265 266 266 264 260 253 248 245 245 248 248 244 245 245 247 251 252 252 246 245 242 234 235 242 243 245 239 233 232 230 227 223 219 220 222 220 220 218 216 214 211 213 221 227 230 232 234 235 236
116 121 112 121 155 168 174 205 238 239 253 264 268 273 272 274 275 274 273 273 273 271 273 276 273 271 269 268 267 263 260 258 258 260 261 261 262 265 264 260 259 257 253 249 248 251 249 247 251 251 249 250 251 249 249 249 243 235 233 233 233 236 238 241 236 227 226 226 222 223 226 226 224 221 220 220 216 213 220 227 230 232 234 235 236
108 111 92 114 163 243 288 300 293 279 287 286 284 282 278 278 276 273 271 273 274 272 275 280 276 273 273 273 272 267 262 260 258 257 259 259 261 265 263 257 256 258 256 251 250 252 250 247 250 253 250 248 247 250 253 246 238 241 243 232 223 226 235 242 230 220 222 225 228 228 229 232 233 230 225 222 221 218 220 227 230 230 233 234 234
86 71 49 29 37 16 315 321 317 295 291 291 289 289 286 286 286 286 283 280 282 279 278 281 275 274 279 280 279 274 268 263 257 256 257 258 260 262 260 257 258 258 256 253 252 253 252 250 248 248 248 247 246 245 250 247 236 240 245 243 243 248 247 228 212 220 225 223 228 230 230 231 229 230 228 222 222 220 217 222 229 233 235 235 232
83 76 67 54 52 53 18 352 341 309 295 292 291 294 296 299 300 295 288 286 288 283 280 283 279 278 280 279 277 274 272 267 260 257 256 256 257 257 257 257 260 260 256 253 252 251 251 252 250 246 244 244 244 240 245 250 244 239 241 243 246 255 258 237 221 223 224 225 227 229 231 229 226 229 228 223 223 222 217 216 223 232 238 238 234
77 70 65 63 62 58 48 33 26 9 351 336 325 325 312 305 301 292 284 288 290 285 284 285 281 278 277 275 274 274 276 271 265 263 262 257 255 256 258 260 260 260 258 254 252 250 250 252 252 247 238 237 240 238 240 248 250 242 236 236 236 240 246 246 247 242 233 235 231 231 235 230 228 234 232 228 225 222 220 218 219 225 235 240 237
80 77 68 65 62 56 50 39 33 29 26 13 0 1 346 326 320 307 297 297 298 296 293 288 281 277 278 283 282 281 281 275 268 267 267 264 259 257 259 262 262 259 257 255 251 249 250 250 249 244 236 235 236 235 237 243 248 245 240 239 236 234 235 240 246 242 238 240 236 237 242 236 234 235 233 234 231 222 220 219 220 223 228 235 236
84 82 79 73 65 57 49 33 25 19 16 13 4 4 1 351 351 348 334 324 316 309 305 301 296 285 281 286 285 281 282 280 277 273 269 269 267 263 261 261 262 260 257 255 251 249 249 250 247 242 237 236 237 236 238 242 245 246 245 243 241 237 234 235 235 231 230 235 238 244 248 242 241 242 238 239 236 225 219 217 220 226 227 230 233
84 82 79 76 72 64 49 33 30 26 14 12 6 2 4 355 349 353 349 342 334 325 321 317 311 298 290 291 290 286 284 283 281 278 274 272 270 270 268 264 260 257 256 256 253 248 245 247 246 242 238 234 236 237 238 241 244 245 244 243 244 241 237 237 236 232 232 237 238 242 247 246 246 250 246 244 240 229 224 222 222 227 230 231 233
Height
1520 1521 1523 1524 1526 1525 1526 1525 1525 1526 1527 1529 1530 1532 1533 1535 1536 1538 1539 1540 1541 1543 1544 1545 1547 1548 1549 1550 1551 1552 1553 1553 1553 1553 1553 1553 1553 1553 1553 1553 1553 1553 1553 1553 1552 1552 1552 1552 1552 1553 1552 1552 1553 1554 1554 1555 1556 1556 1556 1557 1559 1560 1558 1557 1558 1559 1559 1558 1558 1559 1561 1562 1565 1567 1567 1567 1568 1569 1572 1575 1576 1576 1576 1575 1575
1519 1522 1523 1525 1526 1526 1528 1527 1528 1528 1529 1531 1532 1534 1535 1537 1538 1539 1540 1542 1543 1544 1545 1546 1548 1549 1550 1551 1552 1553 1553 1553 1553 1553 1553 1554 1554 1554 1553 1553 1553 1553 1553 1553 1552 1552 1552 1552 1553 1553 1553 1552 1553 1554 1554 1555 1556 1557 1557 1557 1559 1560 1558 1557 1558 1559 1559 1558 1558 1560 1561 1563 1566 1568 1568 1568 1569 1570 1572 1575 1576 1576 1577 1576 1576
1518 1521 1523 1525 1527 1527 1529 1529 1530 1530 1531 1532 1534 1535 1536 1538 1539 1540 1541 1543 1544 1545 1546 1547 1549 1549 1551 1551 1553 1553 1553 1554 1553 1554 1554 1554 1554 1554 1554 1554 1553 1553 1553 1553 1552 1552 1552 1552 1553 1554 1554 1553 1554 1554 1554 1555 1556 1557 1557 1557 1558 1559 1558 1558 1559 1559 1559 1559 1559 1561 1562 1563 1566 1568 1569 1570 1570 1571 1573 1574 1575 1576 1577 1578 1577
1519 1521 1523 1525 1527 1528 1529 1531 1531 1532 1533 1534 1535 1536 1538 1539 1540 1541 1542 1544 1545 1546 1547 1548 1549 1550 1551 1552 1553 1553 1554 1554 1554 1554 1554 1554 1554 1554 1554 1554 1554 1553 1553 1553 1552 1552 1552 1552 1553 1554 1554 1554 1555 1555 1555 1556 1556 1557 1557 1558 1559 1559 1559 1559 1560 1560 1560 1560 1561 1562 1562 1563 1566 1569 1570 1571 1571 1572 1573 1574 1575 1576 1578 1578 1577
1519 1521 1523 1525 1527 1529 1530 1531 1532 1533 1534 1535 1536 1538 1539 1540 1541 1542 1543 1545 1546 1547 1548 1549 1550 1551 1552 1552 1553 1554 1554 1554 1554 1554 1554 1554 1554 1554 1554 1554 1554 1553 1553 1553 1553 1553 1553 1553 1553 1554 1555 1555 1555 1556 1556 1557 1557 1558 1558 1558 1560 1560 1560 1559 1560 1561 1562 1562 1562 1563 1564 1564 1566 1569 1570 1571 1572 1573 1574 1575 1576 1577 1578 1578 1578
1520 1521 1523 1525 1527 1529 1530 1531 1533 1534 1535 1536 1537 1538 1540 1541 1542 1543 1544 1546 1547 1548 1549 1550 1550 1551 1552 1553 1554 1554 1554 1554 1554 1554 1554 1554 1554 1555 1554 1554 1554 1554 1554 1554 1553 1553 1553 1553 1554 1554 1556 1556 1556 1557 1557 1557 1557 1558 1558 1559 1560 1561 1561 1561 1560 1561 1562 1562 1562 1563 1565 1565 1566 1568 1570 1571 1572 1573 1574 1575 1576 1577 1578 1578 1578
1520 1522 1524 1525 1527 1529 1530 1531 1533 1534 1535 1537 1538 1539 1540 1541 1543 1544 1545 1547 1548 1549 1550 1551 1551 1552 1553 1554 1554 1554 1555 1554 1554 1554 1554 1554 1554 1555 1554 1554 1554 1554 1554 1554 1554 1554 1554 1554 1554 1555 1556 1557 1557 1558 1558 1558 1558 1559 1559 1559 1560 1562 1562 1563 1562 1562 1562 1562 1563 1564 1565 1566 1567 1568 1570 1571 1572 1573 1575 1576 1577 1577 1577 1578 1579
1521 1523 1524 1525 1527 1529 1530 1532 1533 1535 1536 1537 1538 1540 1541 1542 1543 1545 1546 1547 1549 1550 1551 1552 1552 1553 1554 1554 1555 1555 1555 1555 1555 1554 1554 1554 1555 1555 1555 1555 1555 1554 1554 1554 1554 1554 1554 1555 1555 1555 1556 1557 1558 1559 1559 1558 1558 1559 1560 1560 1561 1562 1563 1564 1563 1562 1563 1563 1563 1564 1566 1567 1568 1569 1570 1571 1573 1574 1575 1576 1577 1577 1578 1578 1579
1523 1524 1524 1525 1527 1529 1530 1532 1534 1535 1536 1537 1539 1540 1541 1543 1544 1545 1547 1548 1550 1551 1552 1552 1553 1554 1554 1555 1555 1556 1555 1555 1555 1555 1555 1555 1556 1556 1555 1555 1555 1555 1555 1555 1555 1555 1555 1555 1555 1555 1556 1557 1559 1559 1560 1559 1559 1560 1561 1561 1562 1563 1563 1565 1565 1563 1563 1564 1565 1566 1567 1568 1569 1570 1571 1572 1573 1574 1575 1576 1576 1577 1578 1579 1580
1523 1524 1524 1525 1527 1529 1530 1532 1534 1535 1537 1538 1539 1541 1542 1543 1544 1546 1547 1549 1550 1551 1552 1553 1554 1554 1555 1555 1556 1556 1556 1556 1556 1556 1556 1556 1557 1556 1556 1556 1556 1556 1555 1556 1556 1556 1556 1556 1556 1556 1557 1558 1559 1560 1561 1560 1561 1561 1562 1563 1563 1564 1564 1564 1565 1564 1564 1564 1566 1567 1568 1569 1570 1571 1572 1573 1573 1574 1575 1576 1576 1577 1579 1580 1580
1524 1524 1524 1526 1528 1529 1530 1532 1534 1536 1537 1538 1539 1541 1542 1543 1545 1546 1548 1549 1550 1551 1552 1553 1554 1555 1555 1556 1556 1557 1557 1557 1557 1557 1557 1557 1557 1557 1558 1557 1557 1557 1556 1556 1557 1557 1557 1557 1557 1557 1558 1558 1559 1561 1561 1561 1561 1562 1563 1564 1564 1565 1565 1565 1564 1565 1565 1564 1566 1567 1568 1569 1571 1571 1572 1573 1573 1574 1575 1576 1577 1578 1579 1580 1581
1524 1524 1525 1526 1528 1530 1531 1532 1534 1536 1537 1539 1540 1541 1543 1544 1545 1546 1548 1549 1550 1551 1552 1553 1554 1555 1556 1557 1557 1557 1558 1558 1558 1558 1558 1558 1558 1559 1559 1558 1558 1558 1557 1557 1558 1558 1558 1558 1558 1558 1559 1559 1559 1561 1562 1562 1562 1562 1563 1564 1564 1565 1566 1565 1565 1565 1566 1565 1566 1568 1569 1570 1571 1572 1572 1573 1574 1575 1576 1577 1578 1578 1580 1580 1581
1523 1524 1526 1527 1529 1530 1531 1533 1535 1536 1538 1539 1540 1542 1543 1544 1545 1546 1548 1549 1550 1551 1553 1554 1555 1556 1556 1557 1558 1558 1558 1559 1559 1559 1559 1559 1559 1559 1559 1559 1559 1559 1558 1558 1558 1559 1559 1559 1559 1559 1560 1560 1560 1560 1562 1562 1563 1563 1564 1565 1565 1566 1566 1566 1566 1565 1566 1567 1566 1567 1569 1570 1572 1572 1573 1574 1574 1575 1576 1577 1578 1579 1580 1581 1582
1524 1525 1526 1528 1529 1531 1532 1533 1535 1537 1538 1540 1541 1542 1543 1544 1545 1546 1548 1549 1551 1552 1553 1554 1555 1556 1557 1558 1558 1559 1559 1560 1560 1560 1560 1560 1560 1560 1560 1560 1560 1560 1559 1559 1559 1559 1560 1560 1560 1561 1561 1561 1561 1561 1562 1563 1564 1564 1565 1566 1566 1566 1567 1566 1566 1566 1566 1567 1568 1568 1570 1571 1572 1573 1573 1574 1575 1576 1576 1577 1578 1579 1580 1581 1582
1525 1525 1527 1528 1529 1531 1533 1534 1535 1537 1539 1540 1542 1542 1543 1544 1545 1546 1548 1549 1551 1552 1553 1554 1555 1557 1557 1558 1559 1559 1560 1560 1561 1561 1561 1561 1561 1561 1561 1561 1560 1560 1560 1560 1560 1560 1561 1561 1561 1561 1562 1562 1562 1561 1562 1564 1565 1565 1565 1566 1567 1567 1567 1567 1567 1567 1566 1567 1569 1570 1570 1571 1572 1573 1574 1574 1575 1576 1576 1577 1578 1579 1580 1581 1582
1526 1526 1528 1529 1530 1532 1533 1535 1536 1537 1539 1541 1542 1543 1544 1544 1545 1547 1548 1549 1551 1552 1553 1554 1556 1557 1558 1559 1559 1560 1561 1561 1561 1561 1561 1561 1562 1562 1562 1562 1561 1561 1560 1560 1560 1560 1561 1561 1562 1562 1563 1563 1563 1563 1563 1564 1565 1565 1565 1566 1566 1567 1568 1568 1569 1568 1568 1567 1569 1570 1571 1572 1573 1573 1574 1574 1575 1576 1576 1577 1578 1579 1580 1581 1582
1527 1528 1529 1530 1531 1533 1534 1535 1536 1538 1539 1541 1542 1543 1544 1544 1546 1547 1548 1549 1551 1552 1553 1555 1556 1557 1558 1559 1560 1560 1561 1561 1561 1562 1562 1562 1562 1563 1563 1562 1562 1562 1561 1561 1561 1561 1561 1562 1562 1563 1563 1564 1564 1564 1564 1564 1565 1565 1565 1565 1566 1567 1568 1569 1569 1570 1570 1569 1569 1570 1571 1572 1574 1574 1575 1575 1576 1576 1577 1577 1578 1579 1580 1582 1583
1529 1529 1530 1532 1533 1534 1535 1536 1537 1538 1540 1541 1542 1543 1544 1545 1546 1547 1549 1550 1551 1552 1553 1555 1556 1557 1558 1559 1560 1561 1561 1561 1561 1562 1562 1562 1563 1563 1563 1563 1563 1562 1562 1562 1562 1562 1562 1562 1562 1563 1564 1564 1564 1565 1565 1565 1565 1565 1565 1565 1565 1566 1567 1568 1569 1570 1571 1571 1570 1571 1571 1573 1574 1575 1575 1575 1576 1576 1577 1578 1578 1579 1580 1582 1583
1530 1531 1532 1533 1534 1535 1536 1537 1538 1539 1540 1541 1542 1543 1544 1545 1546 1547 1549 1550 1551 1552 1554 1555 1556 1557 1558 1559 1560 1561 1561 1561 1562 1562 1562 1563 1563 1564 1564 1564 1564 1563 1563 1562 1562 1563 1563 1563 1563 1563 1563 1564 1564 1565 1565 1565 1566 1566 1566 1565 1565 1565 1566 1567 1568 1569 1570 1571 1572 1571 1572 1573 1574 1575 1575 1576 1576 1577 1577 1578 1578 1579 1581 1582 1582
1531 1532 1533 1534 1535 1536 1536 1537 1538 1539 1540 1541 1542 1543 1544 1545 1547 1548 1549 1550 1551 1553 1554 1555 1556 1558 1559 1559 1560 1561 1561 1562 1562 1562 1562 1563 1563 1563 1564 1564 1564 1563 1563 1563 1563 1563 1563 1563 1563 1563 1564 1564 1564 1565 1565 1565 1566 1566 1566 1566 1565 1564 1565 1566 1567 1569 1569 1571 1571 1572 1573 1573 1574 1575 1575 1576 1576 1577 1577 1577 1578 1579 1580 1581 1582
1532 1533 1534 1535 1535 1536 1537 1538 1539 1540 1541 1541 1542 1543 1544 1546 1547 1548 1549 1551 1552 1553 1554 1556 1557 1558 1559 1560 1560 1561 1561 1562 1562 1562 1562 1563 1563 1563 1564 1564 1564 1563 1563 1563 1563 1562 1563 1563 1564 1564 1564 1564 1564 1564 1565 1565 1565 1566 1566 1566 1566 1565 1565 1565 1567 1568 1569 1570 1571 1572 1573 1574 1574 1575 1575 1576 1576 1576 1577 1577 1578 1579 1580 1581 1582
1533 1534 1534 1535 1535 1536 1537 1538 1539 1540 1541 1542 1542 1543 1544 1546 1547 1549 1550 1551 1552 1554 1555 1556 1557 1558 1559 1560 1560 1561 1561 1561 1561 1562 1562 1562 1563 1563 1563 1563 1563 1563 1563 1563 1563 1562 1563 1563 1564 1564 1564 1564 1564 1564 1564 1565 1565 1565 1566 1566 1566 1565 1565 1566 1566 1567 1569 1569 1570 1572 1573 1573 1574 1574 1575 1575 1576 1576 1577 1577 1578 1579 1580 1582 1583
1533 1534 1534 1535 1535 1536 1537 1538 1539 1541 1541 1542 1543 1543 1544 1546 1547 1549 1550 1552 1553 1554 1555 1556 1557 1558 1559 1560 1561 1561 1561 1561 1561 1561 1561 1561 1562 1562 1562 1563 1563 1562 1562 1562 1562 1562 1563 1563 1563 1563 1563 1563 1563 1564 1564 1564 1564 1565 1565 1565 1566 1566 1566 1566 1566 1566 1567 1569 1570 1571 1572 1573 1573 1574 1575 1575 1576 1576 1577 1577 1578 1579 1581 1582 1583
1533 1534 1534 1535 1535 1536 1537 1539 1540 1541 1542 1542 1543 1543 1544 1546 1547 1549 1550 1552 1553 1554 1555 1556 1557 1558 1559 1560 1561 1561 1561 1561 1561 1561 1561 1561 1560 1561 1562 1562 1562 1562 1562 1562 1562 1562 1563 1563 1563 1563 1563 1563 1563 1563 1563 1563 1564 1564 1564 1564 1565 1565 1565 1565 1565 1566 1567 1568 1569 1570 1571 1572 1573 1574 1575 1575 1576 1576 1577 1577 1578 1579 1580 1581 1583
1533 1534 1534 1535 1536 1536 1537 1539 1540 1541 1542 1542 1543 1544 1544 1546 1547 1548 1550 1551 1553 1554 1555 1556 1557 1558 1559 1560 1561 1561 1562 1562 1562 1562 1562 1561 1559 1560 1561 1562 1562 1562 1562 1562 1562 1562 1563 1563 1563 1562 1562 1562 1562 1562 1562 1563 1563 1563 1563 1564 1564 1564 1564 1564 1564 1565 1566 1567 1568 1569 1570 1571 1572 1573 1574 1575 1575 1576 1577 1577 1578 1579 1580 1581 1582
1533 1534 1534 1535 1536 1537 1537 1538 1539 1540 1541 1542 1543 1545 1545 1546 1547 1548 1550 1551 1552 1553 1555 1556 1557 1558 1559 1560 1561 1562 1563 1563 1563 1562 1562 1562 1560 1559 1560 1561 1561 1561 1561 1561 1561 1561 1562 1563 1562 1562 1562 1562 1562 1562 1562 1562 1562 1562 1562 1563 1563 1563 1563 1563 1563 1564 1565 1566 1567 1567 1568 1569 1571 1572 1573 1574 1575 1575 1576 1577 1578 1579 1580 1581 1582
1532 1533 1534 1535 1536 1537 1537 1538 1539 1540 1541 1542 1543 1545 1545 1546 1548 1549 1550 1552 1553 1554 1555 1556 1557 1558 1558 1559 1560 1561 1562 1563 1563 1563 1562 1562 1562 1560 1560 1561 1561 1560 1560 1559 1559 1560 1561 1561 1562 1562 1562 1562 1563 1563 1562 1561 1562 1562 1562 1563 1563 1563 1563 1563 1563 1563 1565 1565 1565 1566 1567 1568 1569 1571 1572 1573 1573 1574 1575 1576 1577 1578 1579 1580 1581
1530 1532 1534 1534 1536 1537 1537 1537 1538 1539 1540 1541 1543 1545 1545 1546 1548 1549 1551 1552 1553 1555 1556 1557 1558 1558 1558 1558 1559 1560 1561 1562 1563 1563 1562 1562 1562 1561 1560 1560 1559 1559 1560 1559 1559 1560 1560 1560 1561 1561 1561 1562 1562 1562 1560 1560 1561 1561 1561 1562 1561 1562 1562 1562 1562 1562 1563 1563 1563 1565 1566 1567 1568 1569 1570 1571 1572 1573 1574 1575 1576 1577 1578 1579 1580
1530 1531 1533 1534 1535 1536 1536 1537 1537 1538 1539 1541 1542 1544 1545 1546 1548 1549 1550 1551 1553 1554 1555 1556 1558 1559 1558 1558 1558 1559 1560 1561 1562 1563 1563 1562 1562 1562 1562 1561 1559 1558 1559 1559 1559 1559 1560 1560 1560 1560 1560 1561 1561 1560 1559 1559 1560 1560 1560 1561 1560 1561 1561 1561 1561 1561 1561 1562 1562 1563 1565 1566 1567 1568 1569 1570 1571 1572 1573 1574 1575 1576 1578 1578 1579
1530 1531 1533 1534 1535 1536 1536 1537 1537 1538 1539 1540 1542 1543 1545 1546 1547 1549 1549 1550 1552 1553 1554 1556 1557 1559 1559 1558 1557 1558 1559 1559 1561 1562 1562 1563 1563 1562 1562 1562 1559 1558 1559 1559 1559 1559 1559 1560 1559 1560 1560 1560 1560 1559 1559 1559 1559 1559 1560 1560 1559 1560 1560 1560 1560 1560 1559 1560 1561 1562 1563 1564 1565 1567 1568 1569 1570 1571 1572 1573 1574 1575 1576 1577 1579
1530 1530 1532 1532 1534 1535 1536 1537 1537 1537 1539 1540 1542 1543 1544 1545 1546 1547 1549 1550 1551 1552 1553 1555 1557 1558 1558 1557 1556 1556 1557 1558 1559 1560 1561 1562 1563 1562 1562 1562 1560 1559 1558 1559 1559 1559 1559 1559 1559 1559 1559 1559 1559 1559 1558 1558 1558 1559 1559 1558 1558 1558 1559 1559 1559 1559 1559 1559 1560 1560 1561 1562 1564 1565 1566 1567 1569 1570 1571 1572 1573 1574 1575 1576 1577
1528 1529 1531 1531 1533 1534 1535 1536 1536 1536 1539 1540 1541 1542 1543 1544 1545 1547 1548 1549 1550 1551 1552 1553 1555 1556 1556 1556 1556 1555 1555 1556 1557 1558 1559 1560 1561 1562 1562 1562 1562 1560 1559 1559 1559 1559 1559 1559 1559 1559 1559 1559 1560 1559 1558 1558 1558 1559 1558 1557 1557 1558 1558 1558 1558 1559 1558 1558 1559 1559 1560 1561 1562 1563 1564 1566 1567 1568 1569 1570 1571 1572 1574 1575 1576
1528 1529 1530 1530 1531 1532 1533 1534 1535 1535 1537 1539 1540 1541 1542 1543 1544 1545 1546 1547 1548 1549 1550 1551 1552 1553 1554 1555 1555 1555 1554 1554 1555 1556 1557 1557 1559 1560 1561 1562 1562 1561 1559 1558 1558 1559 1559 1559 1559 1559 1558 1559 1560 1559 1558 1558 1557 1557 1557 1556 1556 1557 1557 1557 1557 1558 1558 1557 1558 1558 1559 1560 1560 1561 1563 1564 1565 1566 1567 1568 1570 1571 1572 1573 1574
1528 1529 1530 1530 1530 1531 1532 1533 1534 1535 1536 1538 1539 1540 1541 1542 1543 1544 1545 1545 1546 1547 1548 1549 1550 1551 1552 1554 1554 1554 1553 1553 1554 1554 1555 1555 1556 1557 1559 1559 1560 1561 1560 1558 1557 1558 1559 1559 1559 1559 1558 1559 1559 1559 1558 1556 1555 1556 1556 1556 1556 1556 1556 1556 1557 1557 1557 1557 1556 1557 1558 1558 1559 1560 1561 1562 1563 1564 1566 1567 1568 1569 1570 1571 1572
1527 1528 1529 1529 1530 1531 1532 1533 1533 1534 1535 1537 1538 1539 1540 1541 1542 1543 1544 1545 1545 1546 1547 1548 1549 1550 1550 1551 1553 1553 1552 1552 1553 1553 1553 1554 1554 1554 1555 1556 1557 1558 1559 1559 1557 1556 1557 1557 1557 1557 1557 1557 1556 1556 1555 1554 1555 1555 1556 1556 1555 1555 1555 1555 1556 1556 1556 1556 1556 1556 1556 1557 1557 1558 1559 1560 1561 1563 1564 1565 1566 1567 1568 1569 1570
1526 1527 1528 1529 1530 1531 1532 1532 1533 1534 1535 1536 1537 1538 1539 1540 1540 1541 1542 1543 1544 1544 1545 1546 1547 1547 1548 1549 1550 1551 1551 1551 1551 1552 1552 1552 1552 1553 1553 1554 1555 1556 1557 1558 1558 1557 1556 1556 1556 1556 1556 1556 1555 1554 1553 1554 1555 1555 1555 1555 1555 1555 1555 1555 1555 1555 1555 1555 1555 1555 1555 1555 1556 1557 1558 1559 1560 1561 1562 1563 1564 1565 1566 1567 1568
1526 1527 1528 1529 1529 1530 1531 1531 1532 1533 1534 1535 1536 1537 1538 1538 1539 1540 1540 1541 1542 1542 1543 1544 1544 1545 1545 1546 1547 1548 1548 1549 1549 1550 1551 1551 1551 1551 1552 1553 1554 1555 1555 1555 1557 1557 1556 1556 1556 1555 1555 1555 1555 1554 1553 1553 1554 1555 1554 1554 1554 1554 1554 1554 1554 1554 1554 1554 1554 1554 1554 1554 1555 1556 1557 1558 1559 1560 1560 1561 1562 1563 1564 1565 1566
1527 1527 1528 1528 1529 1529 1530 1530 1531 1532 1533 1534 1535 1536 1536 1537 1538 1538 1539 1539 1540 1541 1541 1542 1543 1543 1544 1544 1545 1545 1546 1547 1548 1549 1549 1549 1550 1550 1550 1551 1552 1553 1553 1553 1555 1556 1556 1555 1555 1555 1554 1554 1554 1553 1552 1552 1554 1554 1554 1553 1553 1553 1553 1553 1553 1553 1553 1552 1552 1553 1553 1553 1553 1554 1556 1557 1558 1558 1559 1560 1560 1561 1562 1563 1564
1527 1527 1527 1527 1528 1528 1528 1529 1530 1531 1532 1533 1533 1535 1535 1536 1536 1537 1537 1538 1538 1539 1540 1540 1541 1542 1542 1542 1543 1543 1544 1545 1547 1548 1548 1548 1549 1549 1549 1550 1551 1551 1552 1552 1552 1553 1554 1553 1553 1554 1554 1553 1553 1553 1553 1553 1553 1553 1553 1553 1552 1552 1552 1552 1552 1551 1551 1551 1551 1551 1551 1551 1552 1552 1553 1555 1556 1556 1557 1558 1558 1559 1560 1560 1561
1525 1525 1526 1526 1526 1526 1527 1527 1528 1529 1530 1531 1532 1533 1533 1534 1534 1535 1535 1536 1537 1537 1538 1538 1539 1539 1540 1540 1541 1542 1543 1544 1545 1546 1546 1547 1547 1548 1548 1549 1549 1550 1550 1550 1550 1551 1552 1552 1552 1553 1553 1553 1552 1552 1552 1552 1552 1552 1552 1552 1552 1551 1551 1551 1550 1550 1550 1550 1550 1549 1549 1550 1549 1548 1550 1553 1554 1554 1556 1556 1557 1557 1558 1558 1559
1524 1524 1524 1525 1526 1526 1526 1527 1527 1528 1529 1530 1530 1530 1531 1532 1532 1533 1534 1534 1535 1535 1535 1536 1536 1536 1537 1538 1539 1540 1540 1542 1543 1544 1544 1545 1546 1547 1547 1548 1548 1548 1548 1548 1549 1549 1550 1550 1551 1551 1552 1552 1551 1551 1551 1551 1551 1551 1551 1550 1550 1550 1550 1550 1549 1549 1549 1549 1548 1548 1548 1548 1548 1546 1547 1550 1552 1553 1554 1554 1555 1555 1556 1556 1557
1523 1524 1524 1524 1526 1526 1526 1527 1527 1528 1528 1529 1529 1529 1530 1530 1531 1532 1533 1533 1533 1533 1533 1533 1534 1534 1535 1536 1537 1538 1538 1539 1541 1541 1542 1543 1544 1545 1546 1546 1547 1547 1547 1547 1547 1547 1548 1548 1549 1549 1550 1550 1550 1550 1549 1549 1549 1549 1549 1549 1549 1549 1549 1549 1548 1548 1547 1547 1547 1547 1547 1548 1548 1547 1547 1547 1548 1550 1551 1552 1553 1553 1554 1554 1555
1523 1524 1524 1524 1525 1526 1527 1527 1527 1528 1528 1528 1528 1529 1530 1530 1530 1531 1531 1532 1532 1532 1532 1532 1532 1533 1533 1534 1535 1535 1536 1537 1539 1539 1539 1540 1541 1542 1544 1545 1545 1546 1545 1545 1545 1545 1546 1546 1547 1547 1548 1548 1548 1548 1548 1548 1548 1548 1548 1548 1548 1548 1547 1547 1547 1547 1546 1546 1546 1546 1546 1546 1546 1546 1547 1547 1547 1547 1549 1550 1550 1551 1552 1553 1553
1523 1524 1525 1525 1525 1525 1526 1527 1527 1527 1527 1528 1528 1528 1529 1529 1529 1530 1530 1531 1531 1532 1531 1531 1532 1533 1532 1532 1532 1533 1534 1535 1536 1537 1537 1537 1538 1539 1541 1542 1543 1544 1544 1544 1543 1543 1544 1544 1545 1545 1546 1546 1546 1547 1547 1547 1546 1546 1546 1547 1547 1547 1546 1545 1545 1545 1545 1545 1545 1545 1544 1544 1544 1544 1545 1546 1546 1546 1547 1548 1548 1549 1550 1551 1551
1524 1525 1525 1525 1525 1525 1526 1526 1526 1526 1527 1527 1528 1528 1528 1528 1528 1529 1530 1530 1530 1531 1531 1531 1532 1532 1531 1530 1531 1531 1531 1532 1533 1534 1535 1535 1536 1536 1538 1539 1540 1542 1543 1543 1542 1542 1543 1543 1543 1543 1543 1543 1544 1545 1545 1545 1545 1544 1544 1545 1545 1545 1545 1544 1544 1544 1544 1544 1544 1544 1543 1543 1543 1543 1543 1544 1545 1545 1546 1547 1547 1547 1548 1549 1549
1525 1525 1525 1525 1525 1526 1525 1526 1526 1526 1526 1527 1527 1527 1527 1528 1528 1528 1529 1529 1529 1529 1529 1529 1530 1530 1528 1528 1529 1529 1529 1529 1530 1531 1533 1533 1534 1535 1536 1536 1537 1539 1540 1541 1540 1540 1541 1541 1541 1541 1541 1541 1542 1543 1543 1543 1544 1543 1542 1543 1543 1543 1543 1543 1543 1543 1542 1542 1543 1542 1543 1543 1543 1542 1542 1543 1544 1544 1545 1545 1546 1546 1546 1547 1547
1526 1525 1525 1525 1525 1526 1526 1526 1526 1526 1526 1527 1527 1527 1527 1527 1527 1527 1528 1528 1528 1528 1528 1528 1528 1527 1527 1527 1528 1528 1528 1528 1528 1529 1530 1531 1532 1533 1534 1534 1535 1536 1538 1539 1538 1539 1539 1539 1539 1538 1538 1539 1540 1540 1540 1541 1543 1542 1541 1541 1542 1542 1542 1542 1542 1542 1542 1541 1541 1541 1542 1542 1542 1542 1542 1542 1542 1543 1543 1543 1544 1544 1544 1545 1545
1527 1526 1526 1526 1525 1526 1526 1526 1526 1526 1526 1526 1526 1526 1527 1527 1527 1527 1527 1527 1527 1527 1527 1527 1526 1526 1526 1527 1528 1528 1528 1528 1527 1527 1528 1529 1529 1530 1531 1532 1532 1534 1536 1537 1537 1537 1537 1537 1536 1536 1536 1536 1537 1538 1539 1540 1540 1541 1541 1541 1541 1541 1541 1540 1540 1541 1541 1540 1540 1540 1540 1541 1541 1541 1541 1541 1541 1541 1541 1541 1542 1542 1543 1543 1543
1527 1527 1527 1527 1526 1526 1526 1526 1526 1526 1526 1526 1526 1526 1527 1526 1526 1526 1526 1526 1526 1526 1526 1525 1525 1525 1525 1526 1526 1526 1526 1527 1526 1526 1526 1527 1527 1527 1528 1529 1529 1530 1533 1534 1535 1534 1535 1534 1534 1533 1534 1534 1534 1535 1537 1538 1538 1539 1539 1539 1539 1540 1540 1539 1539 1540 1540 1540 1539 1539 1539 1539 1539 1539 1540 1539 1539 1539 1539 1539 1540 1540 1541 1541 1541
1528 1528 1528 1527 1527 1527 1527 1526 1526 1526 1526 1526 1526 1526 1526 1526 1526 1526 1525 1525 1525 1525 1525 1524 1524 1524 1525 1525 1525 1524 1524 1525 1525 1525 1525 1525 1526 1526 1526 1526 1527 1528 1529 1531 1532 1532 1532 1532 1531 1531 1531 1531 1532 1533 1534 1536 1537 1537 1537 1538 1538 1538 1539 1539 1538 1539 1539 1538 1538 1538 1538 1538 1537 1538 1538 1538 1538 1537 1538 1538 1538 1538 1538 1538 1539
1529 1529 1528 1528 1528 1527 1527 1527 1526 1526 1526 1526 1526 1526 1526 1526 1526 1525 1525 1525 1525 1525 1524 1524 1524 1524 1524 1524 1524 1523 1523 1523 1523 1523 1524 1524 1525 1524 1524 1524 1525 1526 1527 1528 1529 1529 1529 1529 1529 1529 1529 1528 1529 1530 1531 1533 1535 1535 1535 1536 1536 1536 1537 1537 1537 1537 1537 1537 1537 1536 1536 1536 1536 1537 1537 1537 1537 1536 1536 1536 1536 1536 1536 1537 1537